Temp
61 57 50 53 56 57 55 53 53 59 64 60 59 59 66 68 65 67 69 69 69 75 81 82 77 77 72 72 73 72 72 72 71 69 68 68 71 72 70 71 72 71 71 71
58 52 61 63 61 59 57 53 54 60 63 59 61 62 63 67 69 68 70 68 69 70 76 80 75 72 72 73 73 72 72 71 72 74 74 71 72 68 70 69 69 69 69 68
54 61 67 64 60 58 53 53 54 57 61 59 58 57 59 69 66 68 68 69 68 69 73 72 73 71 74 72 70 72 72 68 71 71 67 67 67 67 67 66 66 67 69 68
56 64 65 61 61 60 52 61 62 60 54 50 56 46 56 61 62 70 69 66 66 66 67 68 71 70 69 73 69 70 68 67 68 68 68 70 68 67 65 66 66 66 68 68
58 60 61 60 62 63 60 64 59 57 51 47 53 48 56 59 61 66 67 69 68 67 67 68 69 69 70 70 69 68 67 68 68 69 70 67 66 64 64 65 65 65 65 66
60 64 63 64 67 66 65 60 54 49 47 44 48 47 51 55 60 62 66 70 70 71 69 69 69 70 70 69 69 67 67 66 67 67 68 67 66 65 64 64 64 64 64 64
58 59 64 66 60 61 60 50 42 42 40 42 48 48 54 62 66 65 65 67 68 69 68 68 67 66 68 68 68 68 67 67 67 68 68 68 67 66 66 65 64 63 62 62
49 52 62 69 59 54 52 51 43 37 37 42 49 46 57 64 66 67 67 66 68 70 70 71 71 70 69 69 68 69 68 68 68 69 69 68 68 66 65 65 64 64 63 62
49 52 65 68 65 61 53 50 51 45 40 41 44 53 62 64 67 66 67 67 66 66 65 69 71 71 70 69 69 69 68 68 69 69 68 67 66 65 64 64 64 63 64 61
52 50 59 65 64 65 60 59 49 44 38 37 43 46 48 56 58 61 62 61 63 65 66 67 67 69 69 69 68 68 69 69 68 66 65 64 64 64 64 64 63 63 62 61
52 51 55 59 55 51 54 51 47 46 43 39 36 44 54 55 56 56 58 60 61 63 64 65 67 68 67 67 67 67 68 66 63 62 62 62 61 62 61 61 61 61 60 59
53 49 46 49 58 59 55 50 47 42 42 41 40 43 58 55 56 56 57 60 62 64 65 66 67 68 67 65 66 66 65 62 61 61 62 62 60 61 59 59 59 59 59 59
52 46 41 48 52 55 52 53 50 46 42 41 39 44 58 58 56 57 57 59 62 63 65 66 67 67 67 65 65 65 64 61 61 62 62 61 61 59 59 58 59 60 60 59
56 45 45 41 46 49 48 52 52 46 39 41 43 48 54 52 52 55 56 57 61 62 63 65 65 64 64 64 64 63 62 62 61 61 61 60 59 59 59 59 59 58 58 58
51 45 44 48 52 52 52 53 52 48 48 43 47 46 49 51 53 54 56 59 60 61 62 62 63 64 63 63 63 64 63 62 62 61 59 59 58 59 58 58 57 58 58 59
48 44 43 45 52 50 49 53 53 52 51 49 49 46 53 55 56 56 55 57 58 59 61 62 63 63 64 62 63 62 62 61 61 60 59 58 58 59 59 58 58 58 58 58
46 43 41 38 47 48 43 50 51 49 50 49 44 50 55 53 54 53 54 55 56 58 60 61 63 62 61 61 61 60 61 61 61 60 60 60 60 60 59 59 58 58 58 57
44 41 39 37 41 33 49 56 56 51 51 51 53 55 56 55 56 57 58 56 57 58 59 60 61 61 61 60 59 61 61 61 60 60 61 61 61 61 60 59 58 57 56 54
46 42 37 35 33 42 50 53 52 49 47 52 51 53 55 55 57 56 59 59 59 58 58 59 59 60 59 59 59 59 61 61 60 60 61 62 62 61 60 59 58 56 54 53
46 44 41 34 33 33 45 53 58 54 40 53 53 52 52 53 46 49 57 57 58 58 59 59 59 60 59 61 59 59 59 59 60 62 62 62 62 61 59 58 56 54 53 51
39 39 36 33 34 40 50 53 56 40 40 52 52 52 52 49 50 54 55 56 58 58 61 62 61 57 59 59 59 58 58 60 62 62 62 60 60 59 58 55 54 52 50 46
40 37 34 34 32 34 53 53 46 46 49 52 53 53 52 52 53 54 56 56 58 58 60 62 59 57 58 59 59 59 57 61 62 60 59 59 58 59 56 52 52 50 48 43
39 42 39 40 39 47 50 49 51 51 50 52 51 53 53 52 53 55 54 55 57 57 57 57 58 58 56 57 56 57 59 61 60 59 58 57 54 53 51 51 49 46 45 44
42 45 41 43 45 46 50 52 53 52 52 53 53 52 52 51 53 53 54 56 58 58 57 56 57 58 57 57 58 58 58 59 59 57 56 54 50 46 46 47 47 45 44 43
43 43 41 40 44 46 48 50 52 53 52 53 54 53 54 54 54 55 56 55 58 57 58 55 54 57 55 56 57 57 58 58 57 55 55 52 48 45 42 42 43 43 42 43
43 42 38 38 45 43 46 50 52 50 50 51 51 51 54 53 52 54 54 56 55 55 57 55 54 53 55 55 56 58 58 58 55 54 53 49 45 45 44 42 40 40 40 39
MSLP
1012.00 1012.72 1013.19 1013.23 1013.19 1013.06 1013.01 1012.92 1012.55 1011.05 1010.21 1010.01 1009.50 1008.98 1007.76 1007.12 1007.26 1007.20 1007.05 1006.81 1006.36 1005.90 1004.37 1004.79 1005.19 1005.48 1006.21 1006.78 1007.29 1007.71 1008.59 1008.91 1009.57 1010.20 1010.55 1010.95 1010.97 1011.04 1011.23 1011.33 1011.16 1011.35 1011.79 1012.21
1012.49 1012.73 1012.50 1012.37 1012.43 1012.54 1012.58 1012.42 1011.79 1010.87 1010.29 1010.19 1009.67 1009.21 1008.54 1007.74 1007.19 1006.96 1006.84 1006.82 1006.15 1005.53 1004.59 1004.18 1004.40 1004.85 1005.20 1005.42 1006.05 1007.19 1007.61 1008.25 1008.62 1009.12 1009.43 1009.81 1010.07 1010.45 1010.55 1010.84 1010.96 1011.15 1011.48 1011.78
1012.53 1012.25 1011.91 1011.92 1011.82 1011.86 1011.94 1011.87 1011.48 1011.42 1010.64 1010.47 1010.20 1010.08 1009.31 1007.80 1007.68 1007.18 1006.85 1006.64 1005.89 1005.35 1004.76 1004.24 1004.47 1004.29 1004.37 1004.76 1005.19 1006.14 1006.99 1007.71 1007.84 1008.46 1009.22 1009.77 1010.15 1010.25 1010.45 1010.61 1010.74 1010.99 1011.05 1011.14
1012.24 1011.78 1011.59 1011.33 1011.27 1011.26 1011.22 1011.05 1011.16 1011.28 1011.60 1011.58 1011.39 1011.53 1010.03 1009.13 1008.41 1007.42 1007.09 1006.75 1006.25 1005.01 1004.70 1004.71 1004.60 1004.53 1004.00 1004.27 1004.88 1005.54 1006.41 1007.19 1007.51 1007.79 1008.19 1008.75 1009.13 1009.70 1009.79 1009.99 1010.42 1010.88 1011.34 1011.78
1012.07 1011.72 1011.34 1011.28 1010.76 1010.77 1010.88 1010.86 1011.69 1011.80 1012.28 1012.51 1012.35 1012.18 1010.61 1009.67 1009.02 1008.20 1007.50 1006.69 1006.10 1005.49 1004.88 1004.55 1004.54 1004.47 1004.75 1004.84 1005.14 1005.49 1006.02 1006.26 1006.79 1007.40 1007.57 1008.15 1008.73 1009.25 1009.76 1010.17 1010.58 1011.06 1011.51 1011.50
1011.97 1011.32 1011.14 1010.50 1010.05 1010.18 1010.52 1011.29 1012.41 1013.04 1013.56 1013.78 1013.17 1012.85 1011.79 1010.57 1009.82 1008.81 1007.89 1007.20 1006.45 1005.48 1005.15 1005.01 1004.90 1004.77 1004.91 1005.27 1005.39 1005.77 1006.25 1006.53 1006.83 1007.14 1007.40 1007.82 1008.31 1008.98 1009.55 1010.08 1010.47 1010.88 1010.94 1011.74
1012.23 1011.40 1010.67 1010.31 1010.22 1010.36 1011.02 1012.59 1013.84 1014.90 1015.37 1015.02 1013.59 1013.06 1011.59 1010.08 1009.34 1009.16 1008.61 1007.73 1007.28 1006.11 1005.71 1005.44 1005.47 1005.48 1005.43 1005.58 1005.97 1006.09 1005.98 1006.25 1006.74 1007.25 1007.41 1007.71 1007.94 1008.43 1008.91 1009.55 1010.01 1010.67 1011.23 1011.59
1013.20 1011.97 1011.01 1010.41 1010.48 1010.99 1012.06 1013.16 1014.69 1015.89 1016.64 1015.55 1013.87 1012.90 1010.91 1009.90 1009.79 1009.69 1009.46 1008.97 1007.94 1007.23 1006.89 1006.30 1006.08 1005.53 1005.02 1005.45 1005.68 1006.22 1006.51 1006.54 1006.67 1006.88 1006.93 1007.47 1008.06 1008.56 1009.32 1009.66 1010.02 1010.42 1010.72 1011.22
1013.51 1012.52 1011.55 1011.01 1010.93 1011.41 1012.65 1013.73 1014.74 1015.77 1016.85 1016.49 1014.86 1013.06 1010.86 1011.08 1010.44 1010.20 1009.86 1009.49 1009.22 1008.67 1008.17 1007.37 1006.52 1006.35 1006.28 1005.68 1005.98 1006.11 1006.31 1006.63 1006.69 1007.09 1007.39 1007.65 1008.37 1009.03 1009.12 1009.43 1009.85 1010.18 1010.71 1011.23
1013.98 1013.56 1012.60 1011.78 1011.64 1012.08 1012.75 1013.97 1015.10 1016.21 1017.31 1017.20 1015.69 1014.47 1013.80 1012.69 1012.35 1011.75 1011.32 1011.20 1010.72 1009.87 1008.83 1007.98 1007.57 1007.16 1006.84 1006.72 1006.86 1006.45 1006.16 1006.37 1007.00 1008.54 1009.51 1009.69 1009.51 1009.46 1009.58 1009.51 1010.12 1010.32 1010.69 1011.14
1014.43 1014.46 1013.70 1013.01 1013.60 1013.86 1014.02 1014.85 1016.19 1017.03 1017.69 1017.83 1017.10 1015.44 1014.31 1013.99 1013.62 1013.47 1012.98 1012.64 1012.15 1011.42 1010.54 1009.68 1008.72 1008.06 1007.33 1007.12 1007.35 1007.38 1007.30 1009.06 1009.85 1010.50 1012.53 1013.71 1012.39 1011.02 1011.39 1011.10 1011.02 1010.98 1011.02 1011.50
1015.52 1015.69 1015.52 1015.22 1014.71 1014.52 1014.72 1015.76 1016.48 1017.75 1018.47 1018.39 1017.83 1015.59 1014.67 1014.35 1014.43 1014.47 1014.23 1013.59 1012.88 1012.22 1011.58 1010.73 1009.70 1008.82 1008.21 1007.80 1007.45 1007.56 1009.07 1009.14 1009.14 1008.56 1007.80 1010.95 1012.92 1012.04 1010.35 1012.02 1012.07 1012.15 1012.15 1012.15
1016.27 1016.87 1016.94 1016.09 1015.74 1015.21 1015.66 1016.21 1016.67 1017.58 1018.14 1018.26 1018.22 1016.22 1015.08 1014.93 1015.36 1015.47 1015.17 1014.38 1013.43 1012.52 1011.69 1010.97 1010.00 1009.41 1008.98 1008.71 1008.05 1007.85 1008.75 1009.00 1009.34 1008.46 1008.26 1008.63 1009.43 1011.10 1011.21 1011.51 1012.18 1012.36 1012.81 1012.68
1016.82 1017.64 1017.64 1017.36 1016.81 1016.55 1016.56 1016.64 1016.85 1017.51 1018.28 1018.07 1017.80 1016.85 1016.35 1016.83 1016.58 1016.20 1015.73 1015.07 1014.21 1013.29 1012.66 1011.98 1011.13 1010.44 1009.87 1009.15 1008.91 1008.96 1009.21 1009.08 1009.34 1009.66 1010.00 1009.40 1009.31 1010.68 1010.91 1010.66 1011.77 1012.54 1012.90 1012.70
1018.00 1018.57 1018.32 1017.79 1017.40 1017.10 1016.92 1016.80 1016.96 1017.43 1017.43 1017.89 1017.47 1017.55 1017.83 1017.85 1017.53 1016.97 1016.40 1015.55 1014.78 1014.04 1013.36 1012.85 1012.21 1011.49 1010.95 1010.36 1009.93 1009.97 1009.78 1009.44 1009.80 1009.36 1009.56 1009.19 1010.50 1010.97 1010.98 1011.36 1011.85 1012.21 1012.69 1012.75
1019.12 1019.30 1019.24 1018.81 1017.94 1017.73 1017.25 1016.68 1016.75 1016.83 1017.18 1017.46 1017.60 1017.91 1017.98 1017.86 1017.67 1017.09 1016.72 1016.10 1015.47 1014.83 1014.13 1013.47 1012.91 1012.28 1011.63 1011.28 1010.89 1010.73 1010.75 1010.88 1010.65 1010.17 1010.68 1010.52 1011.30 1011.30 1011.72 1011.34 1011.90 1012.04 1012.40 1012.53
1019.85 1020.23 1020.45 1019.92 1019.05 1018.34 1017.54 1016.40 1016.65 1017.36 1017.66 1017.83 1017.93 1017.83 1017.66 1017.75 1017.54 1017.47 1017.28 1016.71 1016.16 1015.54 1014.92 1014.20 1013.53 1013.04 1012.41 1011.95 1011.67 1011.27 1011.16 1011.06 1010.71 1010.34 1010.61 1011.03 1011.18 1011.58 1011.76 1011.92 1012.16 1012.25 1012.36 1012.61
1020.22 1020.87 1021.10 1021.01 1020.00 1019.10 1017.10 1016.49 1016.54 1017.30 1017.92 1018.01 1018.02 1017.92 1017.75 1017.65 1017.49 1017.35 1017.10 1016.85 1016.33 1015.71 1015.17 1014.60 1014.04 1013.45 1012.87 1012.37 1011.91 1011.61 1011.36 1011.19 1010.86 1010.82 1010.48 1010.85 1011.06 1011.44 1011.71 1011.97 1012.23 1012.32 1012.52 1012.85
1020.41 1021.13 1021.81 1021.80 1021.14 1019.61 1017.48 1017.15 1017.37 1017.52 1018.18 1018.19 1018.14 1018.08 1017.87 1017.46 1017.32 1017.20 1016.86 1016.57 1016.18 1015.69 1015.15 1014.69 1014.34 1013.68 1013.01 1012.66 1012.30 1011.88 1010.86 1011.58 1011.01 1010.77 1010.68 1010.79 1010.58 1011.29 1011.60 1011.89 1012.19 1012.52 1012.72 1013.07
1020.92 1021.23 1021.82 1022.38 1021.85 1020.50 1018.67 1018.04 1017.42 1017.58 1018.42 1018.57 1018.53 1018.27 1018.00 1017.69 1017.96 1017.68 1016.90 1016.62 1015.97 1015.25 1014.54 1013.86 1013.58 1013.37 1012.87 1012.13 1012.08 1011.84 1011.26 1011.95 1011.44 1011.16 1010.98 1010.94 1010.90 1011.39 1011.61 1011.92 1012.36 1012.77 1013.00 1013.64
1021.45 1022.08 1022.40 1022.38 1021.89 1020.32 1019.12 1018.30 1017.59 1018.59 1019.84 1019.20 1019.21 1019.14 1018.87 1018.82 1018.52 1017.86 1017.25 1016.43 1015.86 1015.37 1014.69 1013.76 1013.23 1013.19 1013.03 1012.42 1011.84 1012.23 1011.98 1011.80 1011.18 1011.29 1011.19 1011.30 1011.36 1011.57 1011.94 1012.27 1012.69 1013.15 1013.36 1013.91
1021.87 1022.31 1022.66 1022.78 1022.05 1020.67 1019.40 1018.60 1019.17 1019.88 1019.63 1019.50 1019.31 1019.03 1018.88 1018.70 1018.23 1017.77 1017.23 1016.56 1015.93 1015.44 1014.72 1013.99 1013.56 1013.01 1012.74 1012.58 1011.97 1011.71 1011.61 1011.17 1011.02 1011.18 1011.25 1011.43 1011.49 1011.81 1012.29 1012.66 1013.03 1013.38 1013.88 1014.54
1022.40 1022.36 1022.44 1022.67 1021.52 1020.52 1020.09 1019.77 1019.64 1019.74 1019.70 1019.53 1019.49 1019.16 1019.00 1018.81 1018.26 1017.68 1017.16 1016.53 1015.82 1015.31 1014.64 1014.09 1013.69 1013.11 1012.64 1012.38 1012.11 1011.71 1010.81 1011.08 1011.04 1011.22 1011.57 1011.88 1012.27 1012.67 1012.93 1013.16 1013.63 1013.95 1014.25 1014.89
1022.48 1022.28 1022.44 1022.24 1021.32 1020.72 1020.40 1019.98 1019.81 1019.77 1019.63 1019.48 1019.34 1019.02 1018.62 1018.34 1017.86 1017.37 1016.86 1016.20 1015.54 1014.98 1014.55 1014.18 1013.78 1013.47 1012.90 1012.34 1012.14 1011.44 1011.00 1011.04 1010.97 1011.65 1011.81 1012.45 1012.80 1013.32 1013.78 1013.96 1014.16 1014.58 1015.27 1015.66
1022.80 1022.54 1022.47 1022.36 1021.43 1021.12 1020.45 1020.34 1020.07 1019.90 1019.67 1019.40 1018.99 1018.71 1018.34 1017.98 1017.53 1017.03 1016.46 1015.93 1015.34 1014.88 1014.35 1014.04 1013.59 1013.03 1012.77 1012.43 1012.03 1011.36 1010.96 1011.03 1011.31 1011.51 1012.22 1012.77 1013.31 1014.15 1014.50 1014.84 1015.45 1015.57 1016.16 1016.26
1022.81 1022.56 1022.69 1022.13 1021.68 1021.65 1020.94 1020.15 1019.75 1019.81 1019.42 1018.97 1018.66 1018.29 1017.73 1017.49 1017.09 1016.57 1016.22 1015.59 1015.14 1014.71 1014.10 1013.69 1013.12 1012.91 1012.38 1012.26 1011.76 1011.31 1011.13 1011.24 1011.41 1011.99 1012.72 1013.74 1014.64 1015.02 1015.76 1015.70 1016.33 1016.70 1016.75 1016.88
Wind_Speed
4 6 2 4 4 4 2 3 3 7 6 3 4 7 13 10 4 6 9 8 10 15 24 16 10 14 10 10 12 13 11 12 9 6 7 6 9 8 6 7 9 8 5 7
7 1 5 5 4 5 4 3 7 7 3 3 6 11 8 7 9 7 8 8 11 9 17 17 11 11 14 15 16 12 14 11 12 10 7 4 5 4 2 3 3 5 7 10
4 4 4 3 3 2 3 5 3 5 6 3 7 8 8 8 5 8 7 8 10 13 15 12 9 13 12 14 14 15 14 10 12 9 4 3 2 1 3 2 3 4 8 11
3 4 4 5 5 4 4 3 4 2 4 2 4 4 6 8 11 15 13 10 9 3 6 8 8 9 12 11 8 10 11 11 9 11 10 11 8 7 3 3 3 3 1 4
7 3 4 6 4 4 6 5 4 2 2 2 6 5 9 8 10 14 13 13 10 7 6 8 8 5 5 4 4 6 10 12 9 11 10 7 4 3 3 2 5 5 3 6
7 3 3 6 3 4 2 1 5 4 4 4 5 4 7 5 6 10 9 14 13 12 9 8 7 5 3 1 6 6 8 7 6 8 6 8 7 6 3 3 4 5 6 5
6 4 4 1 4 2 7 8 5 6 7 5 1 3 9 7 7 5 11 12 13 11 9 8 9 7 6 3 2 5 7 7 5 8 7 8 9 9 10 8 6 8 6 4
2 6 6 6 1 1 3 6 6 2 2 6 4 2 6 2 10 10 9 9 10 15 12 10 7 4 2 5 4 4 4 3 5 6 7 4 5 3 1 3 7 6 6 5
2 5 4 5 4 3 1 6 2 6 2 2 4 7 11 10 16 16 14 14 18 17 11 13 11 8 7 2 3 2 6 5 6 4 4 3 3 2 4 5 6 6 6 5
1 3 1 6 4 8 8 3 4 4 1 3 6 5 5 12 13 11 16 16 17 19 22 20 15 11 7 6 4 3 4 5 5 11 12 6 6 5 2 4 4 5 5 7
2 3 7 3 6 1 5 5 5 4 4 5 2 7 5 5 6 10 9 10 13 16 17 16 16 13 9 7 6 4 3 15 19 24 23 24 12 9 11 6 5 5 5 6
3 4 2 1 7 1 4 3 5 6 5 1 3 9 2 5 11 11 12 13 13 12 14 14 13 13 12 7 3 3 10 14 15 15 17 8 13 6 7 3 7 6 3 2
3 2 4 9 6 4 6 3 3 3 3 5 5 8 3 14 13 12 12 12 13 15 17 17 18 17 15 13 3 4 12 12 7 4 8 12 13 7 4 6 4 2 1 2
3 3 6 7 5 2 3 4 1 3 2 3 6 7 11 11 12 12 12 9 11 13 15 16 18 18 17 13 5 6 9 9 5 3 3 6 7 6 4 8 5 4 4 4
5 0 2 3 4 2 3 7 4 7 8 5 5 3 4 6 7 8 7 11 14 16 17 16 17 17 18 13 6 4 3 3 2 4 3 7 6 5 5 5 6 6 4 3
4 2 2 3 3 3 4 9 9 7 0 3 3 3 2 3 4 8 9 11 13 14 16 17 17 17 17 14 9 7 5 8 7 5 5 7 4 2 2 4 5 5 4 2
1 4 3 4 4 6 7 5 2 5 3 2 2 4 5 2 5 5 6 6 6 8 10 14 17 15 14 13 8 6 5 4 6 3 5 4 5 4 4 3 3 3 2 1
3 4 2 4 3 3 6 4 2 9 2 3 2 2 5 5 4 3 4 5 7 7 7 7 9 12 13 11 7 5 4 4 4 2 3 4 5 2 2 3 2 1 3 4
4 5 2 2 2 6 6 3 3 2 2 2 2 3 4 5 1 5 2 4 5 6 7 6 5 6 7 8 8 6 4 6 1 3 2 3 3 3 3 3 2 2 4 4
5 3 5 2 2 4 4 7 7 0 1 2 2 2 2 3 2 5 7 7 9 7 5 8 7 5 7 10 10 10 7 6 5 1 3 3 3 3 3 3 5 3 4 4
3 2 4 2 4 7 6 9 5 1 4 3 4 4 5 2 5 7 9 8 6 7 10 10 7 4 6 9 5 9 6 5 3 2 1 2 3 4 5 4 3 3 5 7
3 3 2 2 2 6 5 5 4 4 3 4 4 5 5 7 8 8 11 11 12 11 10 10 8 8 6 8 8 11 9 5 2 2 3 4 5 5 5 6 3 5 6 7
2 4 4 7 6 4 3 1 1 2 2 4 4 7 5 8 9 11 10 11 11 10 9 8 7 10 6 8 7 11 10 5 2 5 4 6 8 7 5 4 5 6 7 6
1 1 2 2 3 4 5 5 5 2 2 5 6 9 7 10 10 11 11 11 12 12 10 7 8 11 12 9 10 9 5 5 4 3 5 5 6 7 7 6 6 7 6 5
5 0 2 5 7 6 5 4 6 7 8 11 12 12 14 15 15 14 13 11 14 12 11 7 9 9 11 8 10 5 4 2 3 6 4 6 6 6 7 9 6 7 7 5
4 6 4 6 7 6 9 7 8 10 12 13 12 11 13 10 13 13 11 13 10 11 12 10 9 7 9 7 7 4 2 4 7 6 5 5 5 3 5 8 9 12 11 11
Wind_Direction
358 55 262 244 205 210 242 224 258 267 263 286 302 280 292 321 236 226 240 244 241 227 237 234 207 196 183 195 198 196 184 196 170 177 185 206 223 227 223 225 223 214 202 144
17 276 227 242 237 212 219 288 285 283 265 165 323 305 316 324 308 299 302 291 256 241 247 245 219 188 197 195 205 188 197 184 192 196 209 197 196 217 194 194 198 172 164 152
152 243 287 200 291 250 208 190 241 234 337 11 334 339 330 322 316 319 298 270 279 250 254 248 227 211 207 201 191 193 191 187 194 192 120 102 97 131 139 171 147 182 169 177
236 294 310 352 332 135 346 234 248 288 64 250 30 274 313 321 325 5 342 317 276 338 273 284 267 238 208 219 170 180 173 186 197 175 181 199 207 211 174 160 143 167 77 114
267 299 322 330 230 179 236 62 353 31 86 32 342 67 278 353 335 332 327 339 334 345 7 341 306 266 258 180 168 161 166 199 185 196 195 181 169 136 120 118 132 131 126 94
235 281 229 224 272 207 94 47 42 53 55 31 282 116 300 310 289 305 310 331 341 6 3 17 6 11 354 131 137 146 171 205 184 180 173 170 166 163 163 202 186 185 149 142
334 282 284 267 337 37 63 51 351 6 10 233 342 35 234 287 301 274 303 311 326 360 4 8 4 2 344 326 153 172 183 201 164 174 187 193 197 174 190 170 176 168 168 173
41 346 16 321 203 157 78 128 143 283 263 275 319 276 257 242 330 329 336 323 340 359 352 354 335 292 317 267 186 190 171 166 174 187 206 162 159 181 189 163 157 174 172 164
43 294 319 17 3 86 89 38 175 106 353 26 294 305 311 9 5 4 353 359 351 348 348 343 339 334 327 278 219 158 134 158 177 162 107 68 32 94 154 145 140 159 161 136
155 332 7 298 43 15 91 154 25 13 327 298 307 299 266 346 337 342 352 357 354 356 360 356 352 343 344 325 27 76 171 173 77 30 19 19 29 26 43 114 138 157 122 125
65 109 291 46 20 359 358 9 39 105 118 164 298 274 205 281 316 336 341 357 358 355 349 350 355 353 350 13 11 335 9 45 64 64 36 4 355 21 358 13 18 40 83 110
348 129 4 306 295 204 93 121 119 104 291 133 152 272 91 8 31 25 9 2 356 358 352 348 349 351 354 348 49 39 56 98 109 111 92 47 302 303 115 9 16 28 31 78
358 14 26 348 349 7 55 37 85 96 82 214 154 266 94 22 20 19 16 1 355 357 360 360 1 357 351 342 301 94 107 122 125 111 132 183 228 195 144 116 138 207 210 111
102 95 155 195 221 203 330 320 311 124 130 250 232 287 350 4 8 5 4 352 356 6 3 0 1 354 348 345 356 88 115 140 153 150 191 196 142 157 182 148 148 165 191 187
73 1 331 274 239 242 251 261 211 207 227 185 258 324 0 348 340 335 332 6 14 11 7 2 1 356 354 355 16 65 166 193 62 27 214 90 107 163 154 148 164 169 182 191
3 289 22 291 315 359 272 256 252 238 221 289 341 93 265 268 288 13 2 7 12 8 5 359 358 354 357 357 354 344 345 340 11 12 20 83 109 130 192 157 169 137 167 182
75 123 78 261 345 332 309 277 334 99 38 221 213 222 233 257 46 354 341 345 355 356 358 4 357 346 341 347 346 351 347 342 351 34 109 119 150 174 188 159 118 133 159 79
152 96 99 243 346 223 245 306 159 119 125 333 294 282 282 277 214 277 316 311 335 339 336 356 351 339 334 331 346 337 343 334 317 282 140 153 148 179 160 122 135 103 72 63
166 122 152 187 211 292 330 68 82 302 269 302 230 344 305 315 122 270 308 327 307 306 289 288 306 297 307 323 331 328 9 318 250 211 172 203 147 167 140 141 127 79 76 61
69 73 122 119 183 229 240 322 310 65 302 296 166 133 12 23 23 277 311 316 303 304 298 324 319 309 339 342 342 332 1 315 313 282 233 243 148 157 109 111 89 72 76 86
348 20 189 161 236 285 300 305 285 208 252 339 331 322 344 342 218 265 301 306 301 295 310 316 315 316 319 317 345 310 310 280 300 275 138 89 138 134 124 102 79 101 96 89
201 159 207 121 226 280 323 359 23 223 296 288 308 291 292 281 293 288 292 292 293 299 298 306 316 305 303 303 327 300 287 279 253 140 129 126 88 67 71 87 77 65 97 104
318 176 192 177 227 244 299 173 131 177 261 322 326 310 293 290 286 292 286 296 291 283 295 298 293 305 308 313 304 284 273 299 214 143 102 73 76 68 48 68 85 81 79 84
353 169 213 43 276 231 253 276 264 257 279 292 285 270 273 271 274 274 284 291 302 303 302 291 307 305 305 305 310 277 288 283 134 104 93 104 83 61 58 71 71 78 80 72
205 62 189 254 292 313 263 240 254 290 281 298 296 281 285 290 291 286 284 289 291 290 293 288 284 284 285 306 300 304 288 185 125 119 96 80 78 86 83 68 61 82 60 68
200 210 173 251 266 228 271 275 278 280 277 277 274 279 276 269 269 275 277 278 276 287 291 285 280 277 283 301 305 314 266 171 136 116 84 88 77 104 104 104 95 61 86 81